Weather History for PATC - June, 2013

Change the Weather History Date:

Wednesday, June 12, 2013

  Actual Average Record
Temperature  
Mean Temperature 41 °F -  
Max Temperature 53 °F 43 °F 53 °F (2003)
Min Temperature 29 °F 33 °F 28 °F (1998)
Degree Days  
Heating Degree Days 24    
Moisture  
Dew Point 38 °F    
Average Humidity 89    
Maximum Humidity 100    
Minimum Humidity 72    
Precipitation  
Precipitation 0.02 in - - ()
Sea Level Pressure  
Sea Level Pressure 30.15 in    
Wind  
Wind Speed 28 mph (NE)    
Max Wind Speed 132 mph    
Max Gust Speed 89 mph    
Visibility 7 miles    
Events Fog , Rain , Snow    
Averages and records for this station are not official NWS values.
T = Trace of Precipitation, MM = Missing Value Source: NWS Daily Summary

Daily Weather History Graph

Daily Weather History Graph

Search for Another Location

Airport or City:

Trip Planner

Search our weather history database for the weather conditions in past years. The results will help you decide how hot, cold, wet, or windy it might be!

Date:

Astronomy

Jun. 12, 2013 Rise Set
Actual Time 3:57 AM AKDT 2:29 AM AKDT
Civil Twilight Sun does not rise Sun does not rise
Nautical Twilight Sun does not rise Sun does not rise
Astronomical Twilight Sun does not rise Sun does not rise
Moon 10:08 AM AKDT (6/12) 2:22 AM AKDT (6/12)
Length of Visible Light 24h 00m
Length of Day
22h 32m
Waxing Crescent, 15% of the Moon is Illuminated
Jun 12
Waxing Crescent
Jun 16
First Quarter
Jun 23
Full
Jun 29
Last Quarter
Jul 7
New

Hourly Weather History & Observations

Time (AKDT) Temp. Windchill Dew Point Humidity Pressure Visibility Wind Dir Wind Speed Gust Speed Precip Events Conditions
12:29 AM - - - N/A% 30.23 in 0.2 mi WSW 44.9 mph 73.6 mph N/A Fog Light Freezing Fog
12:55 AM - - - N/A% 30.23 in 0.2 mi North - - N/A Fog Light Freezing Fog
1:29 AM 30.2 °F - 30.2 °F 100% 30.23 in 10.0 mi North - - N/A Fog Light Freezing Fog
1:49 AM - - - N/A% 30.22 in 10.0 mi North - - N/A   Clear
1:55 AM - - - N/A% 30.22 in 10.0 mi NE 11.5 mph - N/A   Clear
2:09 AM - - - N/A% 30.22 in 0.8 mi NE 11.5 mph - N/A   Partly Cloudy
2:49 AM 30.2 °F 20.8 °F 30.2 °F 100% 30.22 in 1.0 mi NE 11.5 mph - N/A Snow Light Snow Showers
2:55 AM 29.3 °F 19.6 °F 30.0 °F 100% 30.21 in 0.2 mi ENE 11.5 mph - N/A Snow Light Snow Showers
3:49 AM - - - N/A% 30.20 in 0.5 mi NE 12.7 mph - N/A Fog Light Freezing Drizzle
3:55 AM - - - N/A% 30.20 in 0.8 mi NNE 15.0 mph 19.6 mph N/A   Light Freezing Drizzle
4:29 AM - - - N/A% 30.20 in 0.8 mi North - - N/A   Light Freezing Drizzle
4:55 AM - - - N/A% 30.19 in 0.2 mi South 82.9 mph 88.6 mph N/A   Light Freezing Drizzle
5:09 AM - - - N/A% 30.19 in 0.2 mi SSE 132.3 mph - N/A   Light Freezing Drizzle
5:55 AM - - - N/A% 30.18 in 0.8 mi North - - N/A   Light Freezing Drizzle
6:09 AM 32.0 °F 19.2 °F 32.0 °F 100% 30.17 in 10.0 mi NNE 23.0 mph - N/A Rain Light Rain
6:49 AM - - - N/A% 30.17 in 10.0 mi NNE 23.0 mph - N/A Rain Light Rain Showers
6:55 AM 35.6 °F 24.0 °F 35.6 °F 100% 30.15 in 10.0 mi NNE 23.0 mph - N/A   Clear
7:55 AM 35.4 °F 23.5 °F 35.2 °F 99% 30.15 in 10.0 mi NE 24.2 mph - N/A   Clear
8:55 AM 36.1 °F 25.2 °F 35.4 °F 97% 30.16 in 10.0 mi NE 20.7 mph - N/A   Clear
9:55 AM 37.2 °F 25.9 °F 36.9 °F 99% 30.14 in 10.0 mi NNE 24.2 mph - N/A   Clear
10:55 AM 38.1 °F 26.8 °F 36.9 °F 95% 30.14 in 10.0 mi NE 25.3 mph - N/A   Clear
11:55 AM 39.4 °F 28.7 °F 38.5 °F 97% 30.13 in 10.0 mi NE 24.2 mph - N/A   Clear
12:55 PM 42.3 °F 33.6 °F 39.9 °F 91% 30.14 in 10.0 mi NNE 19.6 mph - N/A   Mostly Cloudy
1:05 PM 42.8 °F 34.0 °F 39.2 °F 87% 30.14 in 12.0 mi NE 20.7 mph - N/A   Partly Cloudy
1:55 PM 46.4 °F 39.2 °F 41.0 °F 81% 30.13 in 12.0 mi NE 18.4 mph - N/A   Clear
2:55 PM 50.0 °F - 44.6 °F 82% 30.12 in 12.0 mi NNE 17.3 mph - N/A   Clear
3:55 PM 53.6 °F - 44.6 °F 72% 30.12 in 12.0 mi NNE 16.1 mph - N/A   Clear
4:55 PM 51.8 °F - 44.6 °F 76% 30.10 in 12.0 mi NNE 19.6 mph - N/A   Clear
5:55 PM 49.3 °F - 41.7 °F 75% 30.09 in 10.0 mi NNE 24.2 mph - N/A   Partly Cloudy
6:55 PM 50.0 °F - 42.8 °F 76% 30.08 in 12.0 mi NNE 20.7 mph - N/A   Partly Cloudy
7:55 PM 48.9 °F - 41.9 °F 77% 30.07 in 10.0 mi NNE 21.9 mph - N/A   Partly Cloudy
8:55 PM 44.1 °F 35.0 °F 39.6 °F 84% 30.06 in 10.0 mi NNE 24.2 mph - N/A   Scattered Clouds
9:55 PM 45.5 °F 37.1 °F 41.0 °F 84% 30.06 in 10.0 mi NNE 23.0 mph - N/A   Partly Cloudy
10:55 PM 44.4 °F 35.5 °F 40.1 °F 85% 30.06 in 10.0 mi NNE 24.2 mph - N/A   Mostly Cloudy
11:55 PM 45.1 °F 36.4 °F 41.2 °F 86% 30.05 in 10.0 mi NNE 24.2 mph - N/A   Mostly Cloudy